Time,TemperatureF,DewpointF,PressureIn,WindDirection,WindDirectionDegrees,WindSpeedMPH,WindSpeedGustMPH,Humidity,HourlyPrecipIn,Conditions,Clouds,dailyrainin,SolarRadiationWatts/m^2,SoftwareType,DateUTC
2013-01-22 00:09:00,17.1,0.3,30.18,WNW,292,1.0,1.0,47,0.00,,,0.00,0000,Weather View 32 v70,2013-01-22 06:09:00,
2013-01-22 00:14:00,16.7,0.0,30.18,NW,315,1.0,1.0,47,0.00,,,0.00,0000,Weather View 32 v70,2013-01-22 06:14:00,
2013-01-22 00:19:00,16.7,0.0,30.18,WSW,248,1.0,1.0,47,0.00,,,0.00,0000,Weather View 32 v70,2013-01-22 06:19:00,
2013-01-22 00:24:00,16.7,0.0,30.18,East,90,1.0,1.0,47,0.00,,,0.00,0000,Weather View 32 v70,2013-01-22 06:24:00,
2013-01-22 00:29:00,16.7,0.0,30.18,SW,225,1.0,1.0,47,0.00,,,0.00,0000,Weather View 32 v70,2013-01-22 06:29:00,
2013-01-22 00:34:00,16.3,-0.4,30.18,West,270,1.0,1.0,47,0.00,,,0.00,0000,Weather View 32 v70,2013-01-22 06:34:00,
2013-01-22 00:39:00,16.3,-0.4,30.18,SW,225,1.0,1.0,47,0.00,,,0.00,0000,Weather View 32 v70,2013-01-22 06:39:00,
2013-01-22 00:44:00,16.3,-0.4,30.17,WNW,292,1.0,1.0,47,0.00,,,0.00,0000,Weather View 32 v70,2013-01-22 06:44:00,
2013-01-22 00:49:00,16.3,-0.4,30.17,NW,315,1.0,1.0,47,0.00,,,0.00,0000,Weather View 32 v70,2013-01-22 06:49:00,
2013-01-22 00:54:00,16.3,0.1,30.17,West,270,1.0,1.0,48,0.00,,,0.00,0000,Weather View 32 v70,2013-01-22 06:54:00,
2013-01-22 01:04:00,16.7,0.4,30.17,NNW,338,1.0,1.0,48,0.00,,,0.00,0000,Weather View 32 v70,2013-01-22 07:04:00,
2013-01-22 01:09:00,16.7,0.4,30.17,West,270,1.0,1.0,48,0.00,,,0.00,0000,Weather View 32 v70,2013-01-22 07:09:00,
2013-01-22 01:14:00,16.7,0.4,30.17,WNW,292,1.0,1.0,48,0.00,,,0.00,0000,Weather View 32 v70,2013-01-22 07:14:00,
2013-01-22 01:19:00,16.7,0.9,30.17,South,180,0.0,1.0,49,0.00,,,0.00,0000,Weather View 32 v70,2013-01-22 07:19:00,
2013-01-22 01:29:00,16.7,0.4,30.17,SSW,202,1.0,1.0,48,0.00,,,0.00,0000,Weather View 32 v70,2013-01-22 07:29:00,
2013-01-22 01:39:00,16.7,0.4,30.17,North,0,1.0,1.0,48,0.00,,,0.00,0000,Weather View 32 v70,2013-01-22 07:39:00,
2013-01-22 01:44:00,16.7,0.4,30.17,WSW,248,1.0,1.0,48,0.00,,,0.00,0000,Weather View 32 v70,2013-01-22 07:44:00,
2013-01-22 01:49:00,16.7,0.4,30.17,SSW,202,1.0,1.0,48,0.00,,,0.00,0000,Weather View 32 v70,2013-01-22 07:49:00,
2013-01-22 01:54:00,16.7,0.4,30.17,WNW,292,1.0,1.0,48,0.00,,,0.00,0000,Weather View 32 v70,2013-01-22 07:54:00,
2013-01-22 01:59:00,16.7,0.4,30.17,SSE,158,1.0,1.0,48,0.00,,,0.00,0000,Weather View 32 v70,2013-01-22 07:59:00,
2013-01-22 02:09:00,16.7,0.4,30.17,NW,315,1.0,2.0,48,0.00,,,0.00,0000,Weather View 32 v70,2013-01-22 08:09:00,
2013-01-22 02:14:00,16.7,0.4,30.17,West,270,1.0,2.0,48,0.00,,,0.00,0000,Weather View 32 v70,2013-01-22 08:14:00,
2013-01-22 02:19:00,16.3,0.1,30.17,WNW,292,2.0,2.0,48,0.00,,,0.00,0000,Weather View 32 v70,2013-01-22 08:19:00,
2013-01-22 02:29:00,16.2,-0.1,30.17,WNW,292,2.0,2.0,48,0.00,,,0.00,0000,Weather View 32 v70,2013-01-22 08:29:00,
2013-01-22 02:34:00,16.2,-0.1,30.17,WNW,292,1.0,2.0,48,0.00,,,0.00,0000,Weather View 32 v70,2013-01-22 08:34:00,
2013-01-22 02:39:00,16.2,0.4,30.17,North,0,1.0,2.0,49,0.00,,,0.00,0000,Weather View 32 v70,2013-01-22 08:39:00,
2013-01-22 02:44:00,16.0,0.2,30.17,WNW,292,0.0,2.0,49,0.00,,,0.00,0000,Weather View 32 v70,2013-01-22 08:44:00,
2013-01-22 02:49:00,16.0,0.2,30.17,WNW,292,0.0,2.0,49,0.00,,,0.00,0000,Weather View 32 v70,2013-01-22 08:49:00,
2013-01-22 02:54:00,16.0,0.2,30.17,WNW,292,0.0,2.0,49,0.00,,,0.00,0000,Weather View 32 v70,2013-01-22 08:54:00,
2013-01-22 02:59:00,16.0,0.2,30.17,SW,225,0.0,2.0,49,0.00,,,0.00,0000,Weather View 32 v70,2013-01-22 08:59:00,
2013-01-22 03:04:00,15.6,0.3,30.17,NW,315,0.0,2.0,50,0.00,,,0.00,0000,Weather View 32 v70,2013-01-22 09:04:00,
2013-01-22 03:09:00,15.6,0.3,30.17,NNW,338,0.0,2.0,50,0.00,,,0.00,0000,Weather View 32 v70,2013-01-22 09:09:00,
2013-01-22 03:19:00,16.0,0.6,30.17,WNW,292,0.0,2.0,50,0.00,,,0.00,0000,Weather View 32 v70,2013-01-22 09:19:00,
2013-01-22 03:24:00,16.0,0.6,30.17,WNW,292,0.0,2.0,50,0.00,,,0.00,0000,Weather View 32 v70,2013-01-22 09:24:00,
2013-01-22 03:29:00,16.0,1.0,30.17,WSW,248,1.0,2.0,51,0.00,,,0.00,0000,Weather View 32 v70,2013-01-22 09:29:00,
2013-01-22 03:35:00,16.0,1.0,30.17,WNW,292,1.0,2.0,51,0.00,,,0.00,0000,Weather View 32 v70,2013-01-22 09:35:00,
2013-01-22 03:44:00,16.0,0.6,30.17,WNW,292,0.0,1.0,50,0.00,,,0.00,0000,Weather View 32 v70,2013-01-22 09:44:00,
2013-01-22 03:49:00,15.6,0.3,30.17,NNW,338,0.0,1.0,50,0.00,,,0.00,0000,Weather View 32 v70,2013-01-22 09:49:00,
2013-01-22 03:54:00,15.6,0.3,30.17,West,270,0.0,1.0,50,0.00,,,0.00,0000,Weather View 32 v70,2013-01-22 09:54:00,
2013-01-22 03:59:00,15.6,0.3,30.17,WNW,292,0.0,1.0,50,0.00,,,0.00,0000,Weather View 32 v70,2013-01-22 09:59:00,
2013-01-22 04:04:00,15.6,0.3,30.17,NW,315,0.0,1.0,50,0.00,,,0.00,0000,Weather View 32 v70,2013-01-22 10:04:00,
2013-01-22 04:09:00,15.6,0.3,30.16,SW,225,0.0,1.0,50,0.00,,,0.00,0000,Weather View 32 v70,2013-01-22 10:09:00,
2013-01-22 04:19:00,15.6,0.7,30.16,WNW,292,1.0,1.0,51,0.00,,,0.00,0000,Weather View 32 v70,2013-01-22 10:19:00,
2013-01-22 04:24:00,15.4,0.5,30.16,SW,225,1.0,1.0,51,0.00,,,0.00,0000,Weather View 32 v70,2013-01-22 10:24:00,
2013-01-22 04:29:00,15.6,0.7,30.18,WNW,292,1.0,1.0,51,0.00,,,0.00,0000,Weather View 32 v70,2013-01-22 10:29:00,
2013-01-22 04:34:00,15.4,0.5,30.18,NNW,338,1.0,1.0,51,0.00,,,0.00,0000,Weather View 32 v70,2013-01-22 10:34:00,
2013-01-22 04:39:00,15.4,0.5,30.18,SSW,202,1.0,1.0,51,0.00,,,0.00,0000,Weather View 32 v70,2013-01-22 10:39:00,
2013-01-22 04:44:00,15.3,0.4,30.18,SW,225,1.0,1.0,51,0.00,,,0.00,0000,Weather View 32 v70,2013-01-22 10:44:00,
2013-01-22 04:49:00,15.3,0.4,30.18,West,270,1.0,1.0,51,0.00,,,0.00,0000,Weather View 32 v70,2013-01-22 10:49:00,
2013-01-22 04:54:00,15.3,0.4,30.18,WSW,248,1.0,1.0,51,0.00,,,0.00,0000,Weather View 32 v70,2013-01-22 10:54:00,
2013-01-22 04:59:00,15.3,0.4,30.18,SSW,202,1.0,1.0,51,0.00,,,0.00,0000,Weather View 32 v70,2013-01-22 10:59:00,
2013-01-22 05:04:00,15.1,0.2,30.18,North,0,1.0,1.0,51,0.00,,,0.00,0000,Weather View 32 v70,2013-01-22 11:04:00,
2013-01-22 05:09:00,15.3,0.4,30.18,SW,225,1.0,1.0,51,0.00,,,0.00,0000,Weather View 32 v70,2013-01-22 11:09:00,
2013-01-22 05:14:00,15.3,0.0,30.18,SSW,202,1.0,1.0,50,0.00,,,0.00,0000,Weather View 32 v70,2013-01-22 11:14:00,
2013-01-22 05:19:00,15.3,0.4,30.18,SW,225,1.0,1.0,51,0.00,,,0.00,0000,Weather View 32 v70,2013-01-22 11:19:00,
2013-01-22 05:29:00,15.3,0.0,30.20,WNW,292,1.0,1.0,50,0.00,,,0.00,0000,Weather View 32 v70,2013-01-22 11:29:00,
2013-01-22 05:34:00,15.3,0.0,30.20,NW,315,1.0,1.0,50,0.00,,,0.00,0000,Weather View 32 v70,2013-01-22 11:34:00,
2013-01-22 05:39:00,15.3,0.0,30.20,NW,315,1.0,1.0,50,0.00,,,0.00,0000,Weather View 32 v70,2013-01-22 11:39:00,
2013-01-22 05:44:00,15.3,0.0,30.20,SW,225,0.0,1.0,50,0.00,,,0.00,0000,Weather View 32 v70,2013-01-22 11:44:00,
2013-01-22 05:49:00,15.3,0.4,30.18,WNW,292,1.0,1.0,51,0.00,,,0.00,0000,Weather View 32 v70,2013-01-22 11:49:00,
2013-01-22 05:54:00,14.9,0.0,30.18,WNW,292,1.0,1.0,51,0.00,,,0.00,0000,Weather View 32 v70,2013-01-22 11:54:00,
2013-01-22 05:59:00,14.9,-0.4,30.18,NW,315,1.0,1.0,50,0.00,,,0.00,0000,Weather View 32 v70,2013-01-22 11:59:00,
2013-01-22 06:04:00,14.9,-0.4,30.18,West,270,0.0,1.0,50,0.00,,,0.00,0000,Weather View 32 v70,2013-01-22 12:04:00,
2013-01-22 06:09:00,14.7,-0.1,30.19,West,270,1.0,1.0,51,0.00,,,0.00,0000,Weather View 32 v70,2013-01-22 12:09:00,
2013-01-22 06:14:00,14.9,0.0,30.19,North,0,1.0,1.0,51,0.00,,,0.00,0000,Weather View 32 v70,2013-01-22 12:14:00,
2013-01-22 06:19:00,14.7,-0.1,30.19,SW,225,1.0,1.0,51,0.00,,,0.00,0000,Weather View 32 v70,2013-01-22 12:19:00,
2013-01-22 06:24:00,14.7,-0.1,30.19,WNW,292,1.0,1.0,51,0.00,,,0.00,0000,Weather View 32 v70,2013-01-22 12:24:00,
2013-01-22 06:29:00,14.7,-0.1,30.18,North,0,0.0,1.0,51,0.00,,,0.00,0000,Weather View 32 v70,2013-01-22 12:29:00,
2013-01-22 06:36:00,14.5,0.1,30.18,North,0,0.0,1.0,52,0.00,,,0.00,0000,Weather View 32 v70,2013-01-22 12:36:00,
2013-01-22 06:44:00,14.7,0.3,30.18,North,0,1.0,1.0,52,0.00,,,0.00,0000,Weather View 32 v70,2013-01-22 12:44:00,
2013-01-22 06:49:00,14.9,0.5,30.18,NW,315,0.0,1.0,52,0.00,,,0.00,0000,Weather View 32 v70,2013-01-22 12:49:00,
2013-01-22 06:54:00,14.9,0.5,30.18,NW,315,0.0,1.0,52,0.00,,,0.00,0000,Weather View 32 v70,2013-01-22 12:54:00,
2013-01-22 06:59:00,15.3,0.8,30.18,WNW,292,1.0,1.0,52,0.00,,,0.00,0000,Weather View 32 v70,2013-01-22 12:59:00,
2013-01-22 07:05:00,15.3,0.8,30.21,North,0,0.0,1.0,52,0.00,,,0.00,0000,Weather View 32 v70,2013-01-22 13:05:00,
2013-01-22 07:14:00,15.3,0.4,30.21,North,0,2.0,2.0,51,0.00,,,0.00,0000,Weather View 32 v70,2013-01-22 13:14:00,
2013-01-22 07:19:00,15.3,0.4,30.21,NNW,338,2.0,2.0,51,0.00,,,0.00,0000,Weather View 32 v70,2013-01-22 13:19:00,
2013-01-22 07:24:00,15.3,0.8,30.20,North,0,1.0,2.0,52,0.00,,,0.00,0000,Weather View 32 v70,2013-01-22 13:24:00,
2013-01-22 07:29:00,15.3,0.8,30.20,West,270,1.0,2.0,52,0.00,,,0.00,0000,Weather View 32 v70,2013-01-22 13:29:00,
2013-01-22 07:37:00,15.4,1.0,30.20,SW,225,0.0,2.0,52,0.00,,,0.00,0000,Weather View 32 v70,2013-01-22 13:37:00,
2013-01-22 07:44:00,16.0,1.5,30.20,NNE,22,0.0,2.0,52,0.00,,,0.00,0000,Weather View 32 v70,2013-01-22 13:44:00,
2013-01-22 07:49:00,16.0,1.5,30.22,North,0,0.0,2.0,52,0.00,,,0.00,0000,Weather View 32 v70,2013-01-22 13:49:00,
2013-01-22 07:54:00,16.0,1.5,30.22,NW,315,1.0,2.0,52,0.00,,,0.00,0000,Weather View 32 v70,2013-01-22 13:54:00,
2013-01-22 07:59:00,16.0,1.5,30.22,ESE,112,0.0,2.0,52,0.00,,,0.00,0000,Weather View 32 v70,2013-01-22 13:59:00,
2013-01-22 08:04:00,16.0,1.5,30.22,WSW,248,0.0,2.0,52,0.00,,,0.00,0000,Weather View 32 v70,2013-01-22 14:04:00,
2013-01-22 08:09:00,16.7,2.1,30.23,SW,225,1.0,2.0,52,0.00,,,0.00,0000,Weather View 32 v70,2013-01-22 14:09:00,
2013-01-22 08:14:00,16.7,2.1,30.23,North,0,1.0,2.0,52,0.00,,,0.00,0000,Weather View 32 v70,2013-01-22 14:14:00,
2013-01-22 08:19:00,16.7,1.7,30.23,SSW,202,0.0,2.0,51,0.00,,,0.00,0000,Weather View 32 v70,2013-01-22 14:19:00,
2013-01-22 08:24:00,16.7,1.7,30.23,North,0,0.0,2.0,51,0.00,,,0.00,0000,Weather View 32 v70,2013-01-22 14:24:00,
2013-01-22 08:29:00,16.7,1.7,30.25,SSW,202,1.0,1.0,51,0.00,,,0.00,0000,Weather View 32 v70,2013-01-22 14:29:00,
2013-01-22 08:34:00,17.1,2.5,30.25,WSW,248,1.0,1.0,52,0.00,,,0.00,0000,Weather View 32 v70,2013-01-22 14:34:00,
2013-01-22 08:44:00,17.4,2.4,30.25,NNE,22,1.0,1.0,51,0.00,,,0.00,0000,Weather View 32 v70,2013-01-22 14:44:00,
2013-01-22 08:49:00,17.4,2.4,30.25,North,0,1.0,1.0,51,0.00,,,0.00,0000,Weather View 32 v70,2013-01-22 14:49:00,
2013-01-22 08:54:00,17.2,2.2,30.25,West,270,1.0,1.0,51,0.00,,,0.00,0000,Weather View 32 v70,2013-01-22 14:54:00,
2013-01-22 08:59:00,17.4,2.4,30.25,South,180,1.0,1.0,51,0.00,,,0.00,0000,Weather View 32 v70,2013-01-22 14:59:00,
2013-01-22 09:04:00,17.4,2.0,30.25,West,270,1.0,1.0,50,0.00,,,0.00,0000,Weather View 32 v70,2013-01-22 15:04:00,
2013-01-22 09:09:00,17.4,2.0,30.25,WNW,292,1.0,1.0,50,0.00,,,0.00,0000,Weather View 32 v70,2013-01-22 15:09:00,
2013-01-22 09:14:00,17.6,2.1,30.25,South,180,1.0,1.0,50,0.00,,,0.00,0000,Weather View 32 v70,2013-01-22 15:14:00,
2013-01-22 09:19:00,17.8,2.3,30.25,SW,225,1.0,1.0,50,0.00,,,0.00,0000,Weather View 32 v70,2013-01-22 15:19:00,
2013-01-22 09:24:00,18.1,2.6,30.26,ESE,112,1.0,1.0,50,0.00,,,0.00,0000,Weather View 32 v70,2013-01-22 15:24:00,
2013-01-22 09:29:00,18.1,2.6,30.26,SE,135,1.0,1.0,50,0.00,,,0.00,0000,Weather View 32 v70,2013-01-22 15:29:00,
2013-01-22 09:34:00,18.1,2.6,30.26,WSW,248,1.0,1.0,50,0.00,,,0.00,0000,Weather View 32 v70,2013-01-22 15:34:00,
2013-01-22 09:39:00,18.0,2.0,30.26,South,180,1.0,1.0,49,0.00,,,0.00,0000,Weather View 32 v70,2013-01-22 15:39:00,
2013-01-22 09:49:00,18.1,3.0,30.26,South,180,1.0,1.0,51,0.00,,,0.00,0000,Weather View 32 v70,2013-01-22 15:49:00,
2013-01-22 09:54:00,18.5,3.0,30.26,NW,315,1.0,1.0,50,0.00,,,0.00,0000,Weather View 32 v70,2013-01-22 15:54:00,
2013-01-22 09:59:00,18.3,2.4,30.26,South,180,1.0,1.0,49,0.00,,,0.00,0000,Weather View 32 v70,2013-01-22 15:59:00,
2013-01-22 10:04:00,18.5,2.5,30.26,SSW,202,1.0,1.0,49,0.00,,,0.00,0000,Weather View 32 v70,2013-01-22 16:04:00,
2013-01-22 10:09:00,18.9,3.3,30.26,East,90,1.0,1.0,50,0.00,,,0.00,0000,Weather View 32 v70,2013-01-22 16:09:00,
2013-01-22 10:14:00,18.9,3.3,30.26,SSW,202,1.0,1.0,50,0.00,,,0.00,0000,Weather View 32 v70,2013-01-22 16:14:00,
2013-01-22 10:19:00,19.2,3.6,30.26,West,270,1.0,1.0,50,0.00,,,0.00,0000,Weather View 32 v70,2013-01-22 16:19:00,
2013-01-22 10:24:00,19.0,3.0,30.26,West,270,1.0,1.0,49,0.00,,,0.00,0000,Weather View 32 v70,2013-01-22 16:24:00,
2013-01-22 10:34:00,19.2,3.2,30.27,SSW,202,2.0,2.0,49,0.00,,,0.00,0000,Weather View 32 v70,2013-01-22 16:34:00,
2013-01-22 10:39:00,19.2,2.7,30.27,SSW,202,1.0,2.0,48,0.00,,,0.00,0000,Weather View 32 v70,2013-01-22 16:39:00,
2013-01-22 10:49:00,19.2,3.2,30.27,SW,225,1.0,2.0,49,0.00,,,0.00,0000,Weather View 32 v70,2013-01-22 16:49:00,
2013-01-22 10:54:00,19.2,3.2,30.27,NNE,22,1.0,2.0,49,0.00,,,0.00,0000,Weather View 32 v70,2013-01-22 16:54:00,
2013-01-22 11:04:00,19.2,3.6,30.26,SSW,202,1.0,2.0,50,0.00,,,0.00,0000,Weather View 32 v70,2013-01-22 17:04:00,
2013-01-22 11:09:00,19.2,3.6,30.26,ENE,68,1.0,2.0,50,0.00,,,0.00,0000,Weather View 32 v70,2013-01-22 17:09:00,
2013-01-22 11:14:00,19.2,3.6,30.26,South,180,1.0,2.0,50,0.00,,,0.00,0000,Weather View 32 v70,2013-01-22 17:14:00,
2013-01-22 11:19:00,19.6,4.4,30.26,SSE,158,1.0,2.0,51,0.00,,,0.00,0000,Weather View 32 v70,2013-01-22 17:19:00,
2013-01-22 11:24:00,19.4,4.6,30.26,SSW,202,2.0,2.0,52,0.00,,,0.00,0000,Weather View 32 v70,2013-01-22 17:24:00,
2013-01-22 11:29:00,19.6,4.8,30.26,ESE,112,2.0,2.0,52,0.00,,,0.00,0000,Weather View 32 v70,2013-01-22 17:29:00,
2013-01-22 11:34:00,19.6,5.6,30.26,SW,225,1.0,2.0,54,0.00,,,0.00,0000,Weather View 32 v70,2013-01-22 17:34:00,
2013-01-22 11:39:00,19.6,6.0,30.26,SW,225,1.0,2.0,55,0.00,,,0.00,0000,Weather View 32 v70,2013-01-22 17:39:00,
2013-01-22 11:44:00,19.6,6.4,30.25,SSW,202,1.0,2.0,56,0.00,,,0.00,0000,Weather View 32 v70,2013-01-22 17:44:00,
2013-01-22 11:49:00,19.6,6.8,30.25,West,270,1.0,2.0,57,0.00,,,0.00,0000,Weather View 32 v70,2013-01-22 17:49:00,
2013-01-22 11:59:00,19.6,7.2,30.25,SW,225,1.0,2.0,58,0.00,,,0.00,0000,Weather View 32 v70,2013-01-22 17:59:00,
2013-01-22 12:04:00,19.6,7.2,30.25,SW,225,1.0,2.0,58,0.00,,,0.00,0000,Weather View 32 v70,2013-01-22 18:04:00,
2013-01-22 12:14:00,19.9,8.3,30.24,NNW,338,1.0,2.0,60,0.00,,,0.00,0000,Weather View 32 v70,2013-01-22 18:14:00,
2013-01-22 12:19:00,19.6,7.9,30.24,SSW,202,1.0,2.0,60,0.00,,,0.00,0000,Weather View 32 v70,2013-01-22 18:19:00,
2013-01-22 12:24:00,19.6,7.9,30.24,West,270,1.0,2.0,60,0.00,,,0.00,0000,Weather View 32 v70,2013-01-22 18:24:00,
2013-01-22 12:29:00,19.6,8.3,30.22,SW,225,1.0,2.0,61,0.00,,,0.00,0000,Weather View 32 v70,2013-01-22 18:29:00,
2013-01-22 12:34:00,19.6,8.3,30.22,WSW,248,0.0,1.0,61,0.00,,,0.00,0000,Weather View 32 v70,2013-01-22 18:34:00,
2013-01-22 12:40:00,19.6,8.7,30.22,South,180,1.0,1.0,62,0.00,,,0.00,0000,Weather View 32 v70,2013-01-22 18:40:00,
2013-01-22 12:49:00,19.6,8.7,30.21,South,180,1.0,1.0,62,0.00,,,0.00,0000,Weather View 32 v70,2013-01-22 18:49:00,
2013-01-22 12:54:00,19.6,8.7,30.21,SSW,202,1.0,1.0,62,0.00,,,0.00,0000,Weather View 32 v70,2013-01-22 18:54:00,
2013-01-22 12:59:00,19.8,9.2,30.21,SSW,202,1.0,1.0,63,0.00,,,0.00,0000,Weather View 32 v70,2013-01-22 18:59:00,
2013-01-22 13:09:00,19.6,9.0,30.20,NW,315,1.0,1.0,63,0.00,,,0.00,0000,Weather View 32 v70,2013-01-22 19:09:00,
2013-01-22 13:14:00,19.4,8.5,30.20,SSE,158,1.0,1.0,62,0.00,,,0.00,0000,Weather View 32 v70,2013-01-22 19:14:00,
2013-01-22 13:19:00,19.6,9.0,30.20,South,180,1.0,1.0,63,0.00,,,0.00,0000,Weather View 32 v70,2013-01-22 19:19:00,
2013-01-22 13:29:00,19.6,9.0,30.19,NW,315,1.0,1.0,63,0.00,,,0.00,0000,Weather View 32 v70,2013-01-22 19:29:00,
2013-01-22 13:34:00,19.9,9.4,30.19,West,270,0.0,1.0,63,0.00,,,0.00,0000,Weather View 32 v70,2013-01-22 19:34:00,
2013-01-22 13:39:00,19.6,9.0,30.19,South,180,0.0,1.0,63,0.00,,,0.00,0000,Weather View 32 v70,2013-01-22 19:39:00,
2013-01-22 13:44:00,19.6,9.4,30.18,WSW,248,1.0,1.0,64,0.00,,,0.00,0000,Weather View 32 v70,2013-01-22 19:44:00,
2013-01-22 13:49:00,19.6,9.4,30.18,NW,315,1.0,1.0,64,0.00,,,0.00,0000,Weather View 32 v70,2013-01-22 19:49:00,
2013-01-22 13:54:00,19.6,9.0,30.18,WNW,292,1.0,1.0,63,0.00,,,0.00,0000,Weather View 32 v70,2013-01-22 19:54:00,
2013-01-22 13:59:00,19.8,9.6,30.18,SSW,202,1.0,1.0,64,0.00,,,0.00,0000,Weather View 32 v70,2013-01-22 19:59:00,
2013-01-22 14:04:00,19.8,9.6,30.18,South,180,1.0,1.0,64,0.00,,,0.00,0000,Weather View 32 v70,2013-01-22 20:04:00,
2013-01-22 14:09:00,20.3,10.1,30.19,WNW,292,1.0,1.0,64,0.00,,,0.00,0000,Weather View 32 v70,2013-01-22 20:09:00,
2013-01-22 14:14:00,20.3,10.1,30.19,East,90,0.0,1.0,64,0.00,,,0.00,0000,Weather View 32 v70,2013-01-22 20:14:00,
2013-01-22 14:24:00,20.3,10.4,30.19,West,270,0.0,1.0,65,0.00,,,0.00,0000,Weather View 32 v70,2013-01-22 20:24:00,
2013-01-22 14:29:00,20.1,9.5,30.18,North,0,1.0,1.0,63,0.00,,,0.00,0000,Weather View 32 v70,2013-01-22 20:29:00,
2013-01-22 14:34:00,20.3,10.1,30.18,NW,315,1.0,1.0,64,0.00,,,0.00,0000,Weather View 32 v70,2013-01-22 20:34:00,
2013-01-22 14:39:00,20.1,9.9,30.18,North,0,0.0,1.0,64,0.00,,,0.00,0000,Weather View 32 v70,2013-01-22 20:39:00,
2013-01-22 14:49:00,20.3,10.1,30.19,NW,315,1.0,1.0,64,0.00,,,0.00,0000,Weather View 32 v70,2013-01-22 20:49:00,
2013-01-22 14:54:00,20.3,10.1,30.19,North,0,1.0,1.0,64,0.00,,,0.00,0000,Weather View 32 v70,2013-01-22 20:54:00,
2013-01-22 14:59:00,20.5,10.2,30.19,WNW,292,1.0,1.0,64,0.00,,,0.00,0000,Weather View 32 v70,2013-01-22 20:59:00,
2013-01-22 15:04:00,20.5,10.2,30.19,ENE,68,0.0,1.0,64,0.00,,,0.00,0000,Weather View 32 v70,2013-01-22 21:04:00,
2013-01-22 15:09:00,20.3,9.7,30.17,ENE,68,1.0,1.0,63,0.00,,,0.00,0000,Weather View 32 v70,2013-01-22 21:09:00,
2013-01-22 15:14:00,20.3,9.7,30.17,East,90,1.0,1.0,63,0.00,,,0.00,0000,Weather View 32 v70,2013-01-22 21:14:00,
2013-01-22 15:19:00,19.9,9.4,30.17,West,270,1.0,1.0,63,0.00,,,0.00,0000,Weather View 32 v70,2013-01-22 21:19:00,
2013-01-22 15:24:00,20.3,10.1,30.17,WNW,292,0.0,1.0,64,0.00,,,0.00,0000,Weather View 32 v70,2013-01-22 21:24:00,
2013-01-22 15:34:00,20.1,9.5,30.17,NNW,338,0.0,1.0,63,0.00,,,0.00,0000,Weather View 32 v70,2013-01-22 21:34:00,
2013-01-22 15:39:00,19.9,9.7,30.17,ESE,112,0.0,1.0,64,0.00,,,0.00,0000,Weather View 32 v70,2013-01-22 21:39:00,
2013-01-22 15:44:00,19.9,10.1,30.18,South,180,0.0,1.0,65,0.00,,,0.00,0000,Weather View 32 v70,2013-01-22 21:44:00,
2013-01-22 15:49:00,19.9,9.7,30.18,SSE,158,0.0,1.0,64,0.00,,,0.00,0000,Weather View 32 v70,2013-01-22 21:49:00,
2013-01-22 15:54:00,19.9,9.7,30.18,South,180,0.0,1.0,64,0.00,,,0.00,0000,Weather View 32 v70,2013-01-22 21:54:00,
2013-01-22 15:59:00,19.6,9.4,30.18,West,270,0.0,1.0,64,0.00,,,0.00,0000,Weather View 32 v70,2013-01-22 21:59:00,
2013-01-22 16:04:00,19.6,9.4,30.18,NW,315,0.0,1.0,64,0.00,,,0.00,0000,Weather View 32 v70,2013-01-22 22:04:00,
2013-01-22 16:09:00,19.9,9.7,30.18,SW,225,0.0,1.0,64,0.00,,,0.00,0000,Weather View 32 v70,2013-01-22 22:09:00,
2013-01-22 16:14:00,19.6,9.7,30.18,South,180,0.0,1.0,65,0.00,,,0.00,0000,Weather View 32 v70,2013-01-22 22:14:00,
2013-01-22 16:19:00,19.9,10.1,30.18,East,90,0.0,1.0,65,0.00,,,0.00,0000,Weather View 32 v70,2013-01-22 22:19:00,
2013-01-22 16:24:00,19.8,9.9,30.18,ENE,68,0.0,1.0,65,0.00,,,0.00,0000,Weather View 32 v70,2013-01-22 22:24:00,
2013-01-22 16:34:00,19.6,9.7,30.18,SSE,158,0.0,0.0,65,0.00,,,0.00,0000,Weather View 32 v70,2013-01-22 22:34:00,
2013-01-22 16:42:00,19.6,9.7,30.18,North,0,0.0,0.0,65,0.00,,,0.00,0000,Weather View 32 v70,2013-01-22 22:42:00,
2013-01-22 16:49:00,19.6,10.1,30.18,ESE,112,0.0,0.0,66,0.00,,,0.00,0000,Weather View 32 v70,2013-01-22 22:49:00,
2013-01-22 16:54:00,19.2,9.4,30.18,NW,315,0.0,0.0,65,0.00,,,0.00,0000,Weather View 32 v70,2013-01-22 22:54:00,
2013-01-22 16:59:00,19.6,10.1,30.18,North,0,0.0,0.0,66,0.00,,,0.00,0000,Weather View 32 v70,2013-01-22 22:59:00,
2013-01-22 17:04:00,19.6,10.1,30.18,WNW,292,0.0,0.0,66,0.00,,,0.00,0000,Weather View 32 v70,2013-01-22 23:04:00,
2013-01-22 17:14:00,19.2,9.7,30.18,NW,315,0.0,0.0,66,0.00,,,0.00,0000,Weather View 32 v70,2013-01-22 23:14:00,
2013-01-22 17:19:00,19.0,9.6,30.18,NW,315,0.0,0.0,66,0.00,,,0.00,0000,Weather View 32 v70,2013-01-22 23:19:00,
2013-01-22 17:24:00,19.2,9.7,30.19,North,0,1.0,1.0,66,0.00,,,0.00,0000,Weather View 32 v70,2013-01-22 23:24:00,
2013-01-22 17:29:00,19.0,9.6,30.19,NNW,338,1.0,1.0,66,0.00,,,0.00,0000,Weather View 32 v70,2013-01-22 23:29:00,
2013-01-22 17:34:00,19.0,9.9,30.19,NW,315,0.0,1.0,67,0.00,,,0.00,0000,Weather View 32 v70,2013-01-22 23:34:00,
2013-01-22 17:39:00,19.0,9.9,30.19,NNW,338,0.0,1.0,67,0.00,,,0.00,0000,Weather View 32 v70,2013-01-22 23:39:00,
2013-01-22 17:44:00,19.2,10.1,30.17,ESE,112,0.0,1.0,67,0.00,,,0.00,0000,Weather View 32 v70,2013-01-22 23:44:00,
2013-01-22 17:49:00,19.0,9.9,30.17,NNE,22,0.0,1.0,67,0.00,,,0.00,0000,Weather View 32 v70,2013-01-22 23:49:00,
2013-01-22 17:54:00,19.0,9.9,30.17,ENE,68,0.0,1.0,67,0.00,,,0.00,0000,Weather View 32 v70,2013-01-22 23:54:00,
2013-01-22 17:59:00,19.0,9.9,30.17,North,0,0.0,1.0,67,0.00,,,0.00,0000,Weather View 32 v70,2013-01-22 23:59:00,
2013-01-22 18:04:00,19.2,10.1,30.17,NNE,22,0.0,1.0,67,0.00,,,0.00,0000,Weather View 32 v70,2013-01-23 00:04:00,
2013-01-22 18:09:00,19.2,10.1,30.17,North,0,1.0,1.0,67,0.00,,,0.00,0000,Weather View 32 v70,2013-01-23 00:09:00,
2013-01-22 18:14:00,19.2,10.1,30.17,North,0,1.0,1.0,67,0.00,,,0.00,0000,Weather View 32 v70,2013-01-23 00:14:00,
2013-01-22 18:19:00,19.2,10.1,30.17,North,0,0.0,1.0,67,0.00,,,0.00,0000,Weather View 32 v70,2013-01-23 00:19:00,
2013-01-22 18:29:00,19.2,10.1,30.18,NNW,338,0.0,1.0,67,0.00,,,0.00,0000,Weather View 32 v70,2013-01-23 00:29:00,
2013-01-22 18:34:00,19.2,10.1,30.18,NNE,22,0.0,1.0,67,0.00,,,0.00,0000,Weather View 32 v70,2013-01-23 00:34:00,
2013-01-22 18:39:00,19.2,10.1,30.18,ESE,112,0.0,1.0,67,0.00,,,0.00,0000,Weather View 32 v70,2013-01-23 00:39:00,
2013-01-22 18:44:00,19.2,10.1,30.18,ENE,68,0.0,1.0,67,0.00,,,0.00,0000,Weather View 32 v70,2013-01-23 00:44:00,
2013-01-22 18:49:00,19.6,10.4,30.18,NW,315,0.0,1.0,67,0.00,,,0.00,0000,Weather View 32 v70,2013-01-23 00:49:00,
2013-01-22 18:54:00,19.6,10.4,30.18,NNW,338,0.0,1.0,67,0.00,,,0.00,0000,Weather View 32 v70,2013-01-23 00:54:00,
2013-01-22 18:59:00,19.6,10.4,30.18,East,90,0.0,1.0,67,0.00,,,0.00,0000,Weather View 32 v70,2013-01-23 00:59:00,
2013-01-22 19:04:00,19.6,10.4,30.18,North,0,0.0,1.0,67,0.00,,,0.00,0000,Weather View 32 v70,2013-01-23 01:04:00,
2013-01-22 19:09:00,19.6,10.4,30.17,NE,45,0.0,1.0,67,0.00,,,0.00,0000,Weather View 32 v70,2013-01-23 01:09:00,
2013-01-22 19:14:00,19.2,10.4,30.17,NE,45,0.0,1.0,68,0.00,,,0.00,0000,Weather View 32 v70,2013-01-23 01:14:00,
2013-01-22 19:19:00,19.2,10.1,30.17,NNE,22,0.0,0.0,67,0.00,,,0.00,0000,Weather View 32 v70,2013-01-23 01:19:00,
2013-01-22 19:29:00,18.9,10.0,30.16,ENE,68,0.0,0.0,68,0.00,,,0.00,0000,Weather View 32 v70,2013-01-23 01:29:00,
2013-01-22 19:34:00,18.9,10.0,30.16,NE,45,0.0,0.0,68,0.00,,,0.00,0000,Weather View 32 v70,2013-01-23 01:34:00,
2013-01-22 19:39:00,18.3,9.5,30.16,North,0,0.0,0.0,68,0.00,,,0.00,0000,Weather View 32 v70,2013-01-23 01:39:00,
2013-01-22 19:44:00,18.1,9.4,30.17,NNE,22,0.0,0.0,68,0.00,,,0.00,0000,Weather View 32 v70,2013-01-23 01:44:00,
2013-01-22 19:49:00,18.1,9.4,30.17,WSW,248,0.0,0.0,68,0.00,,,0.00,0000,Weather View 32 v70,2013-01-23 01:49:00,
2013-01-22 19:54:00,17.6,9.2,30.17,North,0,0.0,0.0,69,0.00,,,0.00,0000,Weather View 32 v70,2013-01-23 01:54:00,
2013-01-22 19:59:00,17.4,9.0,30.17,NNW,338,0.0,0.0,69,0.00,,,0.00,0000,Weather View 32 v70,2013-01-23 01:59:00,
2013-01-22 20:05:00,17.4,9.0,30.17,North,0,0.0,0.0,69,0.00,,,0.00,0000,Weather View 32 v70,2013-01-23 02:05:00,
2013-01-22 20:14:00,16.7,8.6,30.17,North,0,0.0,0.0,70,0.00,,,0.00,0000,Weather View 32 v70,2013-01-23 02:14:00,
2013-01-22 20:19:00,16.7,8.6,30.17,North,0,0.0,0.0,70,0.00,,,0.00,0000,Weather View 32 v70,2013-01-23 02:19:00,
2013-01-22 20:24:00,16.7,8.9,30.17,NNW,338,0.0,0.0,71,0.00,,,0.00,0000,Weather View 32 v70,2013-01-23 02:24:00,
2013-01-22 20:34:00,16.0,8.2,30.17,North,0,0.0,0.0,71,0.00,,,0.00,0000,Weather View 32 v70,2013-01-23 02:34:00,
2013-01-22 20:39:00,16.0,8.2,30.17,NNW,338,0.0,0.0,71,0.00,,,0.00,0000,Weather View 32 v70,2013-01-23 02:39:00,
2013-01-22 20:45:00,16.0,8.2,30.17,North,0,0.0,0.0,71,0.00,,,0.00,0000,Weather View 32 v70,2013-01-23 02:45:00,
2013-01-22 20:54:00,15.4,8.0,30.17,North,0,0.0,0.0,72,0.00,,,0.00,0000,Weather View 32 v70,2013-01-23 02:54:00,
2013-01-22 20:59:00,15.6,8.2,30.17,North,0,0.0,0.0,72,0.00,,,0.00,0000,Weather View 32 v70,2013-01-23 02:59:00,
2013-01-22 21:04:00,15.3,7.9,30.17,North,0,0.0,0.0,72,0.00,,,0.00,0000,Weather View 32 v70,2013-01-23 03:04:00,
2013-01-22 21:09:00,15.3,7.9,30.17,North,0,0.0,0.0,72,0.00,,,0.00,0000,Weather View 32 v70,2013-01-23 03:09:00,
2013-01-22 21:14:00,15.3,8.2,30.17,NNE,22,0.0,0.0,73,0.00,,,0.00,0000,Weather View 32 v70,2013-01-23 03:14:00,
2013-01-22 21:19:00,15.3,8.2,30.17,NE,45,0.0,0.0,73,0.00,,,0.00,0000,Weather View 32 v70,2013-01-23 03:19:00,
2013-01-22 21:24:00,15.3,8.2,30.17,East,90,0.0,0.0,73,0.00,,,0.00,0000,Weather View 32 v70,2013-01-23 03:24:00,
2013-01-22 21:34:00,14.9,8.1,30.16,North,0,0.0,0.0,74,0.00,,,0.00,0000,Weather View 32 v70,2013-01-23 03:34:00,
2013-01-22 21:39:00,14.9,8.1,30.16,North,0,0.0,0.0,74,0.00,,,0.00,0000,Weather View 32 v70,2013-01-23 03:39:00,
2013-01-22 21:44:00,14.9,8.1,30.16,NNE,22,0.0,0.0,74,0.00,,,0.00,0000,Weather View 32 v70,2013-01-23 03:44:00,
2013-01-22 21:49:00,14.7,7.9,30.16,NW,315,0.0,0.0,74,0.00,,,0.00,0000,Weather View 32 v70,2013-01-23 03:49:00,
2013-01-22 21:54:00,14.5,7.8,30.16,North,0,0.0,0.0,74,0.00,,,0.00,0000,Weather View 32 v70,2013-01-23 03:54:00,
2013-01-22 21:59:00,14.5,7.8,30.16,North,0,0.0,0.0,74,0.00,,,0.00,0000,Weather View 32 v70,2013-01-23 03:59:00,
2013-01-22 22:04:00,14.5,7.8,30.16,NNW,338,0.0,0.0,74,0.00,,,0.00,0000,Weather View 32 v70,2013-01-23 04:04:00,
2013-01-22 22:09:00,14.5,7.8,30.16,North,0,0.0,0.0,74,0.00,,,0.00,0000,Weather View 32 v70,2013-01-23 04:09:00,
2013-01-22 22:14:00,14.5,8.1,30.16,NW,315,0.0,0.0,75,0.00,,,0.00,0000,Weather View 32 v70,2013-01-23 04:14:00,
2013-01-22 22:19:00,14.5,8.1,30.16,North,0,0.0,0.0,75,0.00,,,0.00,0000,Weather View 32 v70,2013-01-23 04:19:00,
2013-01-22 22:24:00,14.5,8.1,30.16,East,90,0.0,0.0,75,0.00,,,0.00,0000,Weather View 32 v70,2013-01-23 04:24:00,
2013-01-22 22:29:00,14.4,7.9,30.16,North,0,0.0,0.0,75,0.00,,,0.00,0000,Weather View 32 v70,2013-01-23 04:29:00,
2013-01-22 22:39:00,14.5,8.1,30.16,North,0,0.0,0.0,75,0.00,,,0.00,0000,Weather View 32 v70,2013-01-23 04:39:00,
2013-01-22 22:44:00,14.5,8.1,30.16,NNW,338,0.0,0.0,75,0.00,,,0.00,0000,Weather View 32 v70,2013-01-23 04:44:00,
2013-01-22 22:49:00,14.5,8.1,30.17,North,0,0.0,0.0,75,0.00,,,0.00,0000,Weather View 32 v70,2013-01-23 04:49:00,
2013-01-22 22:54:00,14.5,8.4,30.17,NNW,338,0.0,0.0,76,0.00,,,0.00,0000,Weather View 32 v70,2013-01-23 04:54:00,
2013-01-22 22:59:00,14.5,8.4,30.17,NNE,22,0.0,0.0,76,0.00,,,0.00,0000,Weather View 32 v70,2013-01-23 04:59:00,
2013-01-22 23:04:00,14.2,8.0,30.17,North,0,0.0,0.0,76,0.00,,,0.00,0000,Weather View 32 v70,2013-01-23 05:04:00,
2013-01-22 23:09:00,14.5,8.4,30.17,NW,315,0.0,0.0,76,0.00,,,0.00,0000,Weather View 32 v70,2013-01-23 05:09:00,
2013-01-22 23:14:00,14.5,8.4,30.17,North,0,0.0,0.0,76,0.00,,,0.00,0000,Weather View 32 v70,2013-01-23 05:14:00,
2013-01-22 23:19:00,14.5,8.4,30.17,ENE,68,0.0,0.0,76,0.00,,,0.00,0000,Weather View 32 v70,2013-01-23 05:19:00,
2013-01-22 23:24:00,14.5,8.4,30.17,North,0,0.0,0.0,76,0.00,,,0.00,0000,Weather View 32 v70,2013-01-23 05:24:00,
2013-01-22 23:29:00,14.5,8.4,30.17,North,0,0.0,0.0,76,0.00,,,0.00,0000,Weather View 32 v70,2013-01-23 05:29:00,
2013-01-22 23:39:00,14.4,8.2,30.17,SE,135,0.0,0.0,76,0.00,,,0.00,0000,Weather View 32 v70,2013-01-23 05:39:00,
2013-01-22 23:44:00,14.2,8.0,30.17,WNW,292,0.0,0.0,76,0.00,,,0.00,0000,Weather View 32 v70,2013-01-23 05:44:00,
2013-01-22 23:49:00,14.2,8.0,30.17,NW,315,0.0,0.0,76,0.00,,,0.00,0000,Weather View 32 v70,2013-01-23 05:49:00,
2013-01-22 23:54:00,14.2,8.0,30.17,WNW,292,0.0,0.0,76,0.00,,,0.00,0000,Weather View 32 v70,2013-01-23 05:54:00,
2013-01-22 23:59:00,14.2,8.0,30.17,WNW,292,0.0,0.0,76,0.00,,,0.00,0000,Weather View 32 v70,2013-01-23 05:59:00,